Location: Banios
(43.0451°N, 0.2335°E)
Time: 18:47:36
(UTC+00:00)

A-11 Canister half - Pass Details

Date: 11 December 2021
Orbit: 1516 x 1684 km, 47.2° (Epoch: 23 January)

Event Time Altitude Azimuth Distance (km) Brightness Sun altitude
Exits shadow 04:36:57 22° 213° (SSW) 2,933 10.2 -28.9°
Maximum altitude 04:43:28 58° 143° (SE) 1,801 9.4 -27.8°
Drops below altitude 10° 04:53:01 10° 68° (ENE) 3,866 11.9 -26.0°
Sets 04:56:14 0° 65° (ENE) 4,876 12.5 -25.5°
